QPF
0.12 0.11 0.14 0.18 0.15 0.12 0.11 0.15 0.19 0.18 0.14 0.16 0.22 0.24 0.22 0.15 0.10 0.06 0.04 0.02 0.01 0.01 0.01 0.01 0.01 0.01 0.01 0.01 0.02 0.03 0.04 0.04 0.06 0.08 0.06 0.04 0.02 0.01 0.01 0.01 0.01 0.00 0.00
0.07 0.08 0.12 0.18 0.14 0.10 0.08 0.08 0.15 0.18 0.15 0.13 0.16 0.17 0.16 0.14 0.11 0.08 0.05 0.02 0.01 0.01 0.01 0.01 0.00 0.00 0.01 0.01 0.01 0.01 0.02 0.02 0.03 0.06 0.07 0.05 0.03 0.02 0.01 0.01 0.01 0.01 0.00
0.06 0.07 0.12 0.18 0.15 0.11 0.07 0.05 0.08 0.14 0.16 0.14 0.12 0.13 0.13 0.12 0.09 0.06 0.05 0.04 0.02 0.02 0.01 0.01 0.01 0.01 0.01 0.01 0.01 0.01 0.01 0.02 0.02 0.03 0.05 0.05 0.05 0.02 0.01 0.01 0.01 0.01 0.00
0.03 0.05 0.11 0.15 0.12 0.11 0.08 0.05 0.05 0.09 0.13 0.12 0.09 0.10 0.12 0.12 0.09 0.06 0.05 0.05 0.04 0.03 0.03 0.03 0.03 0.02 0.02 0.02 0.02 0.01 0.02 0.02 0.02 0.02 0.03 0.04 0.04 0.03 0.01 0.01 0.00 0.00 0.00
0.01 0.03 0.07 0.11 0.10 0.09 0.08 0.06 0.05 0.05 0.08 0.09 0.07 0.07 0.09 0.10 0.09 0.06 0.05 0.05 0.05 0.04 0.04 0.05 0.05 0.05 0.04 0.03 0.03 0.02 0.02 0.02 0.02 0.02 0.03 0.03 0.03 0.03 0.02 0.01 0.00 0.00 0.00
0.01 0.01 0.03 0.06 0.09 0.09 0.08 0.07 0.05 0.04 0.05 0.07 0.06 0.04 0.05 0.05 0.06 0.06 0.05 0.04 0.04 0.03 0.02 0.02 0.02 0.02 0.02 0.02 0.01 0.01 0.02 0.02 0.02 0.02 0.02 0.03 0.04 0.04 0.03 0.02 0.01 0.01 0.00
0.00 0.01 0.01 0.03 0.06 0.08 0.07 0.07 0.05 0.04 0.04 0.05 0.06 0.04 0.03 0.03 0.02 0.02 0.02 0.02 0.02 0.02 0.02 0.02 0.01 0.00 0.00 0.00 0.01 0.01 0.01 0.02 0.03 0.03 0.02 0.03 0.03 0.03 0.03 0.03 0.03 0.02 0.01
0.01 0.01 0.01 0.03 0.04 0.08 0.08 0.06 0.05 0.04 0.04 0.04 0.05 0.04 0.03 0.02 0.02 0.02 0.01 0.01 0.01 0.01 0.01 0.01 0.01 0.00 0.00 0.00 0.00 0.00 0.00 0.01 0.01 0.03 0.03 0.02 0.02 0.02 0.02 0.02 0.02 0.02 0.01
0.01 0.01 0.02 0.03 0.05 0.07 0.08 0.07 0.07 0.07 0.05 0.04 0.04 0.03 0.03 0.02 0.01 0.01 0.01 0.01 0.01 0.01 0.01 0.01 0.00 0.00 0.00 0.00 0.00 0.00 0.00 0.00 0.01 0.01 0.03 0.03 0.03 0.02 0.02 0.02 0.02 0.02 0.01
0.01 0.02 0.03 0.03 0.05 0.05 0.06 0.06 0.05 0.05 0.05 0.04 0.03 0.03 0.02 0.01 0.00 0.00 0.00 0.00 0.00 0.00 0.00 0.00 0.00 0.00 0.00 0.00 0.00 0.00 0.00 0.00 0.00 0.01 0.01 0.02 0.03 0.03 0.02 0.02 0.02 0.02 0.02
0.01 0.02 0.02 0.03 0.05 0.04 0.04 0.04 0.03 0.02 0.03 0.02 0.02 0.01 0.01 0.01 0.00 0.00 0.00 0.00 0.00 0.00 0.00 0.00 0.00 0.00 0.00 0.00 0.00 0.00 0.00 0.00 0.00 0.00 0.01 0.01 0.02 0.03 0.03 0.02 0.02 0.01 0.01
0.01 0.01 0.01 0.01 0.02 0.02 0.02 0.03 0.02 0.01 0.01 0.01 0.01 0.01 0.01 0.01 0.00 0.00 0.00 0.00 0.00 0.00 0.00 0.00 0.00 0.00 0.00 0.00 0.00 0.00 0.00 0.00 0.00 0.00 0.00 0.01 0.01 0.01 0.02 0.03 0.02 0.01 0.01
0.01 0.01 0.00 0.00 0.01 0.01 0.01 0.01 0.01 0.01 0.01 0.00 0.00 0.01 0.01 0.01 0.00 0.00 0.00 0.00 0.00 0.00 0.00 0.00 0.00 0.00 0.00 0.00 0.00 0.00 0.00 0.00 0.00 0.00 0.00 0.01 0.01 0.01 0.02 0.03 0.03 0.02 0.02
0.01 0.01 0.01 0.00 0.00 0.00 0.00 0.00 0.01 0.01 0.00 0.00 0.00 0.00 0.00 0.01 0.01 0.00 0.00 0.00 0.00 0.00 0.00 0.00 0.00 0.00 0.00 0.00 0.00 0.00 0.00 0.00 0.00 0.00 0.00 0.00 0.01 0.01 0.01 0.02 0.02 0.02 0.02
0.00 0.00 0.00 0.00 0.00 0.00 0.00 0.00 0.00 0.00 0.00 0.00 0.00 0.01 0.00 0.00 0.00 0.00 0.00 0.00 0.00 0.00 0.00 0.00 0.00 0.00 0.00 0.00 0.00 0.00 0.00 0.00 0.00 0.00 0.00 0.00 0.00 0.01 0.01 0.02 0.02 0.02 0.02
0.00 0.00 0.00 0.00 0.00 0.00 0.00 0.00 0.00 0.00 0.00 0.00 0.00 0.01 0.01 0.01 0.01 0.00 0.00 0.00 0.00 0.00 0.00 0.00 0.00 0.00 0.00 0.00 0.00 0.00 0.00 0.00 0.00 0.00 0.00 0.00 0.00 0.00 0.01 0.01 0.02 0.03 0.03
0.00 0.00 0.00 0.00 0.00 0.00 0.00 0.00 0.00 0.00 0.00 0.00 0.01 0.01 0.01 0.02 0.02 0.01 0.01 0.00 0.00 0.00 0.00 0.00 0.00 0.00 0.00 0.00 0.00 0.00 0.00 0.00 0.00 0.00 0.00 0.00 0.00 0.00 0.00 0.01 0.01 0.02 0.03
0.00 0.00 0.00 0.00 0.00 0.00 0.00 0.00 0.00 0.00 0.00 0.01 0.01 0.01 0.01 0.01 0.01 0.01 0.01 0.00 0.00 0.00 0.00 0.00 0.00 0.00 0.00 0.00 0.00 0.00 0.00 0.00 0.00 0.00 0.00 0.00 0.00 0.00 0.01 0.01 0.01 0.01 0.01
0.00 0.00 0.00 0.00 0.00 0.00 0.00 0.00 0.00 0.00 0.00 0.01 0.01 0.01 0.01 0.01 0.01 0.01 0.00 0.00 0.00 0.00 0.00 0.00 0.00 0.00 0.00 0.00 0.00 0.00 0.00 0.00 0.00 0.00 0.00 0.00 0.00 0.00 0.00 0.00 0.00 0.00 0.01
0.00 0.00 0.00 0.00 0.00 0.00 0.00 0.00 0.00 0.00 0.00 0.00 0.00 0.01 0.01 0.01 0.01 0.00 0.00 0.00 0.00 0.00 0.00 0.00 0.00 0.00 0.01 0.01 0.01 0.00 0.00 0.00 0.00 0.00 0.00 0.00 0.00 0.00 0.00 0.00 0.00 0.01 0.01
0.00 0.00 0.00 0.00 0.00 0.00 0.00 0.00 0.00 0.00 0.00 0.00 0.00 0.00 0.01 0.01 0.01 0.00 0.00 0.00 0.00 0.00 0.00 0.00 0.00 0.00 0.00 0.00 0.00 0.00 0.00 0.00 0.00 0.00 0.00 0.00 0.00 0.00 0.00 0.00 0.00 0.01 0.01
0.00 0.00 0.00 0.00 0.00 0.00 0.00 0.00 0.00 0.00 0.00 0.00 0.00 0.00 0.00 0.00 0.00 0.00 0.00 0.00 0.00 0.00 0.00 0.00 0.00 0.00 0.00 0.00 0.00 0.00 0.00 0.00 0.00 0.00 0.00 0.00 0.00 0.00 0.00 0.01 0.01 0.01 0.01
0.00 0.00 0.00 0.00 0.00 0.00 0.00 0.00 0.00 0.00 0.00 0.00 0.00 0.00 0.00 0.00 0.00 0.00 0.00 0.00 0.00 0.00 0.00 0.00 0.00 0.00 0.00 0.00 0.00 0.00 0.00 0.01 0.01 0.00 0.00 0.00 0.00 0.00 0.00 0.00 0.01 0.01 0.01
0.00 0.00 0.00 0.00 0.00 0.00 0.00 0.00 0.00 0.00 0.00 0.00 0.00 0.00 0.00 0.00 0.00 0.00 0.00 0.00 0.00 0.00 0.00 0.00 0.00 0.00 0.00 0.00 0.00 0.00 0.00 0.01 0.00 0.00 0.00 0.00 0.00 0.00 0.00 0.00 0.01 0.01 0.01
0.01 0.00 0.01 0.01 0.01 0.01 0.01 0.00 0.00 0.00 0.00 0.00 0.00 0.00 0.00 0.00 0.00 0.00 0.00 0.00 0.00 0.00 0.01 0.00 0.00 0.00 0.00 0.00 0.00 0.01 0.01 0.00 0.00 0.00 0.00 0.00 0.01 0.00 0.00 0.00 0.00 0.01 0.01
0.01 0.01 0.01 0.01 0.01 0.00 0.00 0.00 0.00 0.00 0.00 0.00 0.00 0.00 0.00 0.00 0.00 0.00 0.00 0.00 0.00 0.00 0.00 0.00 0.01 0.00 0.00 0.01 0.01 0.01 0.01 0.01 0.00 0.00 0.01 0.01 0.00 0.00 0.00 0.00 0.00 0.01 0.01
MSLP
1011.89 1011.84 1011.77 1011.70 1011.68 1011.75 1011.97 1012.35 1012.90 1013.59 1014.37 1015.17 1015.92 1016.57 1017.10 1017.49 1017.76 1017.95 1018.12 1018.29 1018.52 1018.81 1019.17 1019.60 1020.05 1020.51 1020.95 1021.35 1021.70 1022.00 1022.26 1022.49 1022.70 1022.90 1023.11 1023.30 1023.49 1023.67 1023.82 1023.94 1024.03 1024.08 1024.10
1011.86 1011.94 1012.00 1012.05 1012.13 1012.26 1012.50 1012.88 1013.40 1014.05 1014.79 1015.56 1016.30 1016.95 1017.48 1017.87 1018.14 1018.31 1018.44 1018.58 1018.76 1019.01 1019.35 1019.75 1020.20 1020.66 1021.10 1021.49 1021.84 1022.12 1022.35 1022.55 1022.73 1022.91 1023.09 1023.29 1023.48 1023.68 1023.85 1024.01 1024.13 1024.22 1024.27
1011.85 1012.04 1012.24 1012.41 1012.59 1012.78 1013.04 1013.39 1013.86 1014.46 1015.14 1015.87 1016.58 1017.23 1017.78 1018.18 1018.46 1018.64 1018.76 1018.87 1019.01 1019.23 1019.52 1019.88 1020.29 1020.72 1021.14 1021.51 1021.83 1022.10 1022.31 1022.49 1022.66 1022.84 1023.03 1023.23 1023.44 1023.66 1023.86 1024.03 1024.17 1024.28 1024.35
1011.81 1012.13 1012.46 1012.76 1013.02 1013.27 1013.53 1013.85 1014.27 1014.79 1015.40 1016.08 1016.76 1017.41 1017.96 1018.40 1018.71 1018.92 1019.05 1019.15 1019.27 1019.44 1019.68 1019.99 1020.35 1020.73 1021.11 1021.45 1021.75 1021.99 1022.20 1022.38 1022.56 1022.74 1022.95 1023.17 1023.41 1023.64 1023.86 1024.04 1024.19 1024.29 1024.36
1011.76 1012.20 1012.65 1013.06 1013.41 1013.70 1013.97 1014.25 1014.60 1015.03 1015.57 1016.18 1016.83 1017.47 1018.05 1018.52 1018.88 1019.13 1019.29 1019.40 1019.51 1019.65 1019.85 1020.10 1020.40 1020.73 1021.05 1021.36 1021.63 1021.86 1022.07 1022.26 1022.45 1022.66 1022.89 1023.14 1023.40 1023.65 1023.87 1024.05 1024.18 1024.27 1024.31
1011.71 1012.24 1012.80 1013.31 1013.73 1014.06 1014.33 1014.57 1014.84 1015.20 1015.65 1016.20 1016.81 1017.44 1018.03 1018.55 1018.97 1019.27 1019.48 1019.62 1019.74 1019.86 1020.02 1020.22 1020.47 1020.74 1021.02 1021.29 1021.54 1021.77 1021.97 1022.17 1022.38 1022.61 1022.86 1023.13 1023.41 1023.66 1023.88 1024.05 1024.16 1024.22 1024.23
1011.66 1012.27 1012.90 1013.49 1013.97 1014.33 1014.58 1014.79 1015.00 1015.28 1015.66 1016.15 1016.72 1017.34 1017.95 1018.51 1018.98 1019.34 1019.60 1019.78 1019.92 1020.05 1020.18 1020.36 1020.56 1020.79 1021.03 1021.27 1021.50 1021.72 1021.92 1022.13 1022.35 1022.59 1022.85 1023.13 1023.40 1023.65 1023.87 1024.02 1024.12 1024.15 1024.13
1011.63 1012.27 1012.95 1013.58 1014.09 1014.47 1014.73 1014.91 1015.08 1015.30 1015.62 1016.06 1016.59 1017.20 1017.82 1018.41 1018.92 1019.33 1019.64 1019.87 1020.03 1020.17 1020.31 1020.46 1020.65 1020.85 1021.07 1021.29 1021.50 1021.70 1021.90 1022.11 1022.33 1022.56 1022.82 1023.09 1023.35 1023.60 1023.80 1023.95 1024.03 1024.05 1024.02
1011.63 1012.25 1012.93 1013.57 1014.10 1014.48 1014.74 1014.91 1015.07 1015.26 1015.54 1015.94 1016.45 1017.03 1017.65 1018.25 1018.79 1019.24 1019.59 1019.85 1020.04 1020.20 1020.35 1020.50 1020.68 1020.88 1021.08 1021.29 1021.50 1021.69 1021.89 1022.08 1022.28 1022.49 1022.73 1022.98 1023.23 1023.46 1023.65 1023.80 1023.89 1023.92 1023.90
1011.65 1012.21 1012.84 1013.45 1013.97 1014.36 1014.63 1014.82 1014.97 1015.17 1015.44 1015.82 1016.30 1016.86 1017.46 1018.05 1018.59 1019.05 1019.42 1019.70 1019.92 1020.10 1020.26 1020.43 1020.62 1020.82 1021.04 1021.25 1021.45 1021.64 1021.82 1021.99 1022.17 1022.36 1022.56 1022.77 1023.00 1023.22 1023.42 1023.58 1023.69 1023.75 1023.76
1011.70 1012.15 1012.70 1013.25 1013.74 1014.13 1014.42 1014.63 1014.82 1015.04 1015.32 1015.69 1016.16 1016.69 1017.26 1017.82 1018.33 1018.78 1019.14 1019.42 1019.65 1019.85 1020.03 1020.22 1020.43 1020.65 1020.89 1021.11 1021.32 1021.51 1021.67 1021.82 1021.97 1022.12 1022.29 1022.47 1022.67 1022.88 1023.08 1023.27 1023.41 1023.52 1023.58
1011.79 1012.11 1012.54 1013.01 1013.46 1013.84 1014.15 1014.40 1014.64 1014.89 1015.21 1015.58 1016.03 1016.53 1017.06 1017.57 1018.04 1018.44 1018.77 1019.05 1019.27 1019.48 1019.68 1019.89 1020.13 1020.38 1020.63 1020.88 1021.10 1021.29 1021.44 1021.57 1021.69 1021.80 1021.93 1022.08 1022.26 1022.46 1022.67 1022.87 1023.06 1023.22 1023.33
1011.94 1012.11 1012.42 1012.80 1013.19 1013.55 1013.88 1014.18 1014.47 1014.78 1015.12 1015.51 1015.94 1016.41 1016.87 1017.32 1017.73 1018.08 1018.37 1018.62 1018.84 1019.04 1019.26 1019.50 1019.76 1020.03 1020.31 1020.57 1020.81 1021.00 1021.15 1021.26 1021.35 1021.43 1021.53 1021.64 1021.80 1021.98 1022.19 1022.41 1022.63 1022.82 1022.98
1012.16 1012.21 1012.39 1012.68 1013.01 1013.35 1013.69 1014.03 1014.37 1014.71 1015.08 1015.48 1015.89 1016.31 1016.73 1017.11 1017.45 1017.75 1018.00 1018.22 1018.42 1018.63 1018.86 1019.11 1019.39 1019.68 1019.98 1020.25 1020.49 1020.68 1020.82 1020.92 1020.99 1021.04 1021.10 1021.18 1021.31 1021.47 1021.66 1021.88 1022.11 1022.32 1022.50
1012.47 1012.41 1012.50 1012.69 1012.97 1013.29 1013.63 1013.99 1014.36 1014.73 1015.12 1015.51 1015.89 1016.27 1016.63 1016.96 1017.25 1017.50 1017.71 1017.91 1018.11 1018.32 1018.55 1018.81 1019.10 1019.40 1019.69 1019.97 1020.20 1020.38 1020.51 1020.59 1020.63 1020.65 1020.68 1020.73 1020.81 1020.94 1021.10 1021.30 1021.51 1021.71 1021.88
1012.88 1012.75 1012.76 1012.89 1013.11 1013.39 1013.73 1014.09 1014.46 1014.84 1015.22 1015.59 1015.95 1016.29 1016.61 1016.89 1017.14 1017.37 1017.57 1017.77 1017.96 1018.18 1018.41 1018.67 1018.95 1019.23 1019.51 1019.76 1019.97 1020.13 1020.23 1020.28 1020.30 1020.29 1020.29 1020.29 1020.33 1020.41 1020.53 1020.67 1020.83 1020.99 1021.13
1013.37 1013.20 1013.16 1013.23 1013.41 1013.66 1013.97 1014.31 1014.66 1015.03 1015.38 1015.73 1016.05 1016.36 1016.65 1016.91 1017.15 1017.37 1017.59 1017.80 1018.01 1018.23 1018.46 1018.70 1018.95 1019.20 1019.44 1019.64 1019.81 1019.92 1019.99 1020.01 1019.99 1019.95 1019.90 1019.87 1019.86 1019.88 1019.94 1020.02 1020.11 1020.21 1020.30
1013.88 1013.70 1013.64 1013.68 1013.82 1014.04 1014.31 1014.61 1014.93 1015.26 1015.58 1015.89 1016.18 1016.47 1016.74 1017.00 1017.26 1017.51 1017.75 1017.99 1018.22 1018.45 1018.67 1018.89 1019.09 1019.28 1019.45 1019.59 1019.68 1019.74 1019.76 1019.73 1019.68 1019.61 1019.53 1019.45 1019.39 1019.35 1019.34 1019.35 1019.38 1019.41 1019.43
1014.35 1014.20 1014.13 1014.16 1014.27 1014.45 1014.69 1014.95 1015.22 1015.50 1015.78 1016.05 1016.32 1016.59 1016.87 1017.15 1017.44 1017.73 1018.01 1018.29 1018.54 1018.77 1018.98 1019.15 1019.30 1019.41 1019.49 1019.54 1019.56 1019.55 1019.50 1019.43 1019.34 1019.24 1019.13 1019.02 1018.92 1018.83 1018.76 1018.71 1018.67 1018.63 1018.60
1014.71 1014.59 1014.55 1014.58 1014.68 1014.84 1015.04 1015.26 1015.49 1015.72 1015.95 1016.19 1016.45 1016.72 1017.01 1017.32 1017.65 1017.99 1018.32 1018.62 1018.89 1019.12 1019.29 1019.41 1019.49 1019.51 1019.50 1019.45 1019.39 1019.30 1019.20 1019.09 1018.96 1018.83 1018.70 1018.57 1018.44 1018.32 1018.21 1018.10 1018.01 1017.93 1017.85
1014.92 1014.84 1014.83 1014.88 1014.99 1015.14 1015.32 1015.51 1015.70 1015.90 1016.10 1016.32 1016.56 1016.84 1017.15 1017.50 1017.87 1018.25 1018.61 1018.93 1019.21 1019.41 1019.54 1019.60 1019.59 1019.53 1019.42 1019.29 1019.14 1018.98 1018.83 1018.68 1018.53 1018.39 1018.24 1018.10 1017.96 1017.82 1017.68 1017.56 1017.44 1017.33 1017.23
1014.95 1014.92 1014.95 1015.03 1015.17 1015.33 1015.51 1015.69 1015.87 1016.05 1016.24 1016.44 1016.68 1016.97 1017.30 1017.67 1018.07 1018.46 1018.84 1019.17 1019.42 1019.59 1019.67 1019.66 1019.57 1019.42 1019.23 1019.01 1018.80 1018.59 1018.40 1018.22 1018.06 1017.91 1017.76 1017.62 1017.48 1017.33 1017.19 1017.06 1016.94 1016.82 1016.72
1014.81 1014.84 1014.92 1015.06 1015.24 1015.43 1015.63 1015.82 1016.01 1016.19 1016.37 1016.58 1016.82 1017.12 1017.46 1017.84 1018.24 1018.64 1019.00 1019.30 1019.53 1019.65 1019.66 1019.58 1019.42 1019.19 1018.93 1018.66 1018.39 1018.15 1017.93 1017.74 1017.57 1017.42 1017.27 1017.13 1017.00 1016.86 1016.73 1016.61 1016.49 1016.39 1016.30
1014.57 1014.66 1014.81 1015.01 1015.25 1015.49 1015.73 1015.95 1016.15 1016.34 1016.54 1016.75 1017.00 1017.29 1017.63 1018.01 1018.39 1018.76 1019.09 1019.35 1019.52 1019.58 1019.53 1019.39 1019.16 1018.88 1018.57 1018.26 1017.96 1017.69 1017.46 1017.26 1017.09 1016.93 1016.79 1016.65 1016.52 1016.39 1016.27 1016.16 1016.06 1015.98 1015.92
1014.30 1014.46 1014.69 1014.97 1015.26 1015.56 1015.84 1016.09 1016.33 1016.54 1016.75 1016.97 1017.23 1017.51 1017.84 1018.18 1018.53 1018.85 1019.13 1019.33 1019.43 1019.43 1019.32 1019.12 1018.84 1018.52 1018.19 1017.85 1017.54 1017.27 1017.02 1016.82 1016.63 1016.47 1016.32 1016.17 1016.03 1015.90 1015.78 1015.69 1015.61 1015.55 1015.51
1014.09 1014.33 1014.64 1014.98 1015.33 1015.68 1016.00 1016.29 1016.55 1016.78 1017.01 1017.24 1017.49 1017.76 1018.05 1018.36 1018.66 1018.92 1019.13 1019.26 1019.29 1019.23 1019.06 1018.82 1018.52 1018.18 1017.83 1017.49 1017.17 1016.89 1016.65 1016.42 1016.23 1016.04 1015.86 1015.69 1015.53 1015.38 1015.26 1015.16 1015.09 1015.05 1015.03
Thickness
5567 5571 5574 5578 5583 5587 5590 5594 5597 5600 5602 5605 5608 5610 5611 5613 5615 5616 5617 5618 5620 5621 5621 5622 5622 5623 5623 5622 5622 5621 5620 5618 5618 5617 5614 5613 5612 5612 5610 5609 5608 5607 5605
5565 5568 5572 5576 5580 5583 5586 5589 5592 5596 5598 5600 5603 5605 5605 5606 5607 5608 5609 5611 5612 5613 5613 5614 5614 5615 5614 5614 5614 5613 5611 5609 5608 5607 5606 5604 5603 5602 5602 5600 5599 5597 5596
5565 5567 5569 5572 5575 5579 5582 5586 5588 5590 5593 5595 5597 5599 5599 5598 5599 5600 5601 5603 5604 5605 5606 5606 5607 5606 5607 5606 5605 5605 5604 5601 5598 5598 5598 5596 5595 5591 5592 5591 5590 5588 5586
5564 5566 5567 5569 5571 5574 5577 5581 5583 5585 5587 5589 5591 5594 5594 5593 5594 5594 5594 5594 5596 5597 5598 5598 5599 5598 5598 5597 5597 5596 5595 5594 5591 5589 5587 5585 5584 5582 5581 5581 5580 5578 5577
5562 5564 5565 5566 5569 5570 5572 5576 5578 5580 5582 5583 5586 5587 5587 5587 5587 5587 5586 5587 5588 5589 5590 5590 5590 5590 5589 5589 5588 5587 5586 5584 5582 5580 5577 5575 5573 5572 5572 5571 5569 5568 5568
5560 5561 5562 5563 5565 5566 5569 5572 5573 5575 5576 5578 5580 5581 5582 5581 5580 5579 5579 5580 5580 5581 5581 5582 5581 5581 5580 5580 5579 5577 5576 5574 5572 5570 5568 5567 5565 5563 5560 5559 5557 5556 5557
5557 5558 5559 5560 5563 5564 5566 5568 5569 5571 5572 5573 5574 5575 5576 5576 5575 5574 5574 5573 5572 5573 5574 5573 5572 5571 5571 5570 5569 5567 5566 5565 5563 5560 5559 5558 5556 5554 5551 5548 5546 5545 5545
5555 5557 5559 5560 5561 5562 5563 5564 5565 5566 5566 5568 5569 5569 5569 5569 5569 5569 5567 5566 5566 5566 5566 5564 5563 5563 5562 5561 5559 5558 5556 5555 5553 5551 5549 5548 5546 5544 5542 5539 5536 5534 5534
5553 5554 5555 5556 5559 5560 5560 5560 5560 5561 5561 5562 5562 5562 5562 5562 5562 5562 5560 5560 5560 5559 5557 5556 5554 5553 5552 5551 5549 5547 5546 5544 5542 5540 5539 5538 5536 5534 5532 5530 5527 5524 5524
5549 5551 5552 5553 5555 5556 5556 5556 5556 5556 5557 5557 5557 5557 5556 5555 5555 5554 5553 5552 5552 5551 5549 5547 5545 5544 5543 5541 5539 5537 5535 5533 5532 5529 5527 5526 5525 5523 5521 5519 5516 5514 5512
5546 5547 5548 5549 5550 5550 5549 5550 5550 5550 5551 5551 5550 5550 5549 5549 5548 5546 5545 5545 5544 5542 5540 5539 5537 5535 5532 5530 5528 5527 5525 5523 5521 5519 5517 5515 5514 5511 5509 5507 5504 5502 5499
5542 5542 5543 5544 5544 5544 5543 5543 5544 5544 5545 5544 5543 5543 5543 5541 5540 5539 5538 5536 5534 5533 5531 5529 5527 5525 5522 5520 5518 5516 5515 5512 5510 5508 5506 5504 5503 5500 5498 5495 5493 5490 5488
5537 5537 5537 5537 5538 5538 5537 5537 5538 5538 5538 5537 5535 5534 5534 5533 5532 5531 5529 5528 5526 5524 5521 5519 5517 5515 5513 5510 5508 5506 5504 5502 5500 5498 5495 5493 5491 5489 5486 5484 5481 5479 5477
5532 5531 5530 5530 5531 5531 5532 5532 5531 5531 5531 5529 5528 5527 5526 5526 5525 5523 5521 5519 5517 5514 5512 5510 5508 5505 5503 5501 5498 5496 5494 5492 5489 5487 5485 5483 5481 5478 5476 5473 5470 5468 5465
5528 5527 5526 5525 5524 5524 5524 5525 5525 5525 5524 5522 5521 5521 5520 5518 5516 5514 5512 5510 5508 5506 5503 5500 5497 5495 5493 5491 5488 5486 5484 5481 5479 5476 5474 5472 5470 5468 5465 5463 5460 5457 5454
5522 5522 5521 5520 5519 5518 5518 5518 5517 5517 5516 5515 5514 5513 5511 5509 5507 5505 5503 5500 5498 5495 5492 5490 5487 5485 5483 5481 5479 5477 5474 5471 5468 5466 5464 5461 5459 5457 5455 5454 5452 5448 5445
5514 5514 5514 5513 5513 5512 5512 5511 5510 5509 5507 5506 5506 5504 5502 5500 5498 5496 5493 5490 5487 5485 5482 5479 5477 5475 5473 5472 5470 5467 5464 5461 5458 5455 5452 5450 5448 5446 5443 5442 5440 5437 5436
5507 5506 5505 5505 5505 5504 5503 5502 5500 5499 5497 5496 5495 5494 5491 5489 5487 5484 5482 5480 5477 5474 5472 5469 5467 5465 5463 5462 5460 5457 5453 5450 5447 5444 5441 5438 5436 5433 5431 5429 5427 5425 5424
5499 5498 5497 5496 5495 5493 5492 5491 5489 5488 5487 5486 5485 5483 5481 5479 5476 5474 5472 5470 5467 5464 5461 5459 5457 5454 5453 5451 5449 5446 5442 5438 5435 5433 5430 5426 5424 5423 5420 5417 5415 5414 5412
5489 5488 5487 5485 5484 5483 5481 5480 5478 5476 5475 5475 5474 5472 5470 5468 5466 5464 5462 5459 5456 5454 5451 5448 5446 5443 5441 5440 5438 5436 5431 5426 5423 5420 5418 5416 5413 5411 5409 5406 5403 5402 5401
5480 5478 5476 5474 5473 5472 5470 5469 5467 5466 5466 5464 5463 5461 5459 5457 5455 5453 5450 5447 5444 5441 5439 5436 5434 5431 5430 5428 5427 5424 5419 5415 5411 5409 5406 5404 5403 5401 5399 5396 5393 5392 5390
5468 5466 5464 5463 5462 5460 5458 5457 5456 5456 5454 5452 5450 5449 5446 5445 5443 5439 5437 5434 5431 5428 5426 5423 5422 5420 5418 5416 5414 5412 5409 5405 5401 5398 5396 5394 5392 5390 5388 5385 5383 5380 5378
5455 5453 5451 5450 5449 5447 5445 5445 5446 5443 5441 5439 5437 5436 5434 5432 5429 5426 5424 5421 5418 5415 5414 5411 5410 5409 5407 5404 5403 5401 5398 5395 5391 5388 5386 5383 5381 5379 5376 5374 5371 5368 5364
5442 5440 5438 5437 5437 5435 5433 5433 5433 5431 5428 5426 5425 5423 5421 5419 5416 5413 5411 5409 5406 5404 5402 5400 5399 5397 5395 5392 5390 5388 5386 5383 5380 5377 5375 5373 5370 5366 5363 5361 5358 5355 5352
5429 5427 5425 5425 5425 5424 5422 5421 5419 5418 5415 5414 5412 5410 5408 5406 5404 5402 5400 5398 5398 5395 5393 5391 5388 5386 5384 5384 5381 5378 5375 5372 5369 5366 5362 5359 5356 5353 5350 5347 5344 5342 5340
5417 5415 5414 5413 5413 5411 5410 5410 5408 5406 5403 5402 5400 5398 5396 5394 5392 5390 5389 5388 5387 5386 5384 5381 5379 5377 5376 5374 5371 5368 5366 5363 5359 5355 5351 5348 5345 5342 5339 5336 5334 5331 5329